User: anonymous   Login
Location: Dompnac
(44.5644°N, 4.1026°E)
Time: 12:47:05
(UTC+00:00)
Language:

Cosmos 1536 Rocket - Orbit

View from above orbital plane
View from above orbital plane
View from above satellite
View from above satellite

Ground track
Ground track

The orbit data is extracted from the following two-line orbital elements,

1 14700U 84013B   20330.78019807 +.00000104 +00000-0 +96382-5 0  9994
2 14700 082.5392 061.8609 0020778 138.7557 018.7118 14.83305655966336
Epoch (UTC): 25 November 2020 18:43:29
Eccentricity: 0.0020778
inclination: 82.5392°
perigee height: 604 km
apogee height: 633 km
right ascension of ascending node: 61.8609°
argument of perigee: 138.7557°
revolutions per day: 14.83305655
mean anomaly at epoch: 18.7118°
orbit number at epoch: 96633

The dashed part of the orbit path shows where the satellite is in the earth's shadow,  

DLR